Orbital Elements at Epoch 2459000.5 (2020-May-31.0) TDB
Reference: JPL 12 (heliocentric ecliptic J2000)
Element | Value | Uncertainty (1-sigma) | Units |
e | .06607133885427961 | 6.4884e-08 | |
a | 2.689000411030521 | 5.0064e-08 | au |
q | 2.511334553694026 | 1.8404e-07 | au |
i | 8.849977615069674 | 8.2415e-06 | deg |
node | 143.8154360162654 | 4.7609e-05 | deg |
peri | 266.655663684345 | 7.9267e-05 | deg |
M | 227.9538527302111 | 6.6466e-05 | deg |
tp | 2459591.255757924751 (2022-Jan-11.75575792) | 0.00030229 | TDB |
period | 1610.589004300075 4.41 | 4.4979e-05 1.231e-07 | d yr |
n | .2235207113912017 | 6.2423e-09 | deg/d |
Q | 2.866666268367015 | 5.3372e-08 | au |
|
| | Orbit Determination Parameters
Additional Information
|